Regional Weather Roundup
Issued by NWS

Home | Current Version | Previous Version | Text Only | Print | Product List | Glossary On
Versions: 1 2 3 4 5 6 7 8 9 10 11 12 13 14 15 16 17 18 19 20 21 22 23 24 25 26 27 28 29 30 31 32 33 34 35 36 37 38 39 40 41 42 43 44 45 46 47 48 49 50
739
ASUS43 KDMX 160901
RWRIA

WEATHER ROUNDUP FOR IOWA
NATIONAL WEATHER SERVICE DES MOINES IA
400 AM CDT WED AUG 16 2017

NOTE: "FAIR" INDICATES FEW OR NO CLOUDS BELOW 12,000 FEET WITH NO
SIGNIFICANT WEATHER AND/OR OBSTRUCTIONS TO VISIBILITY.

* - THESE STATIONS ARE NOT NWS STATIONS...THUS NOT UNDER NWS
QUALITY CONTROL.  THEY ALSO DO NOT REPORT WEATHER SUCH
AS PRECIPITATION OR FOG.

IAZ001>003-012>014-020>022-031>034-043>046-161000-
   NORTHWEST IOWA

CITY           SKY/WX    TMP DP  RH WIND       PRES   REMARKS
CARROLL *      CLOUDY    70  70 100 SE10      29.86F FOG
CHEROKEE *     HVY RAIN  67  67 100 CALM      29.88F
DENISON *      CLOUDY    68  68 100 NE3       29.87S FOG
LE MARS *      CLOUDY    64  64 100 N5        29.88F
ORANGE CITY *  CLOUDY    66  66 100 CALM      29.90R FOG
SHELDON *      CLOUDY    66  64  94 CALM      29.88S FOG
SIOUX CITY     CLOUDY    68  67  96 N5        29.86F
SPENCER        LGT RAIN  68  67  96 S7        29.88F FOG
STORM LAKE *   FOG       68  68 100 SE8       29.89S VSB 1/4
$$

IAZ055>058-069>071-079>083-090>094-161000-
   SOUTHWEST IOWA

CITY           SKY/WX    TMP DP  RH WIND       PRES   REMARKS
ATLANTIC *     CLOUDY    70  68  94 CALM      29.84F
AUDUBON *      MOCLDY    70  66  88 SE3       29.86F FOG
CLARINDA *     PTCLDY    70  70 100 S5        29.85F
COUNCIL BLFS * CLOUDY    70  70 100 SE8       29.82F
CRESTON *      CLOUDY    68  68 100 E6        29.88F FOG
HARLAN  *      MOCLDY    68  68 100 SE8       29.87F
LAMONI         CLEAR     69  68  96 E3        29.87S
RED OAK *      CLOUDY    72  68  88 SE7G14    29.83F
SHENANDOAH *   PTCLDY    72  70  94 SE8       29.82F
$$

IAZ047>049-059>061-072>074-084-161000-
   CENTRAL IOWA

CITY           SKY/WX    TMP DP  RH WIND       PRES   REMARKS
AMES           CLEAR     67  67 100 E6        29.90R FOG
ANKENY *       PTCLDY    66  66 100 CALM      29.90S FOG
BOONE *        PTCLDY    66  64  94 E7        29.89F FOG
CHARITON *     CLEAR     68  68 100 E6        29.89R FOG
DES MOINES     MOCLDY    69  68  96 E7        29.88S FOG
GRINNELL*      CLEAR     67  65  94 E5        29.93R
KNOXVILLE *    CLEAR     70  68  94 SE7       29.89R
MARSHALLTOWN   CLEAR     66  65  96 E7        29.91R
NEWTON *       PTCLDY    68  66  94 SE8       29.91R
PELLA *        CLEAR     69  67  93 SE5       29.91R
PERRY *        CLOUDY    70  69  98 SE7       29.88F FOG
$$

IAZ004>006-015-016-023>025-035-036-161000-
   NORTH CENTRAL IOWA

CITY           SKY/WX    TMP DP  RH WIND       PRES   REMARKS
ALGONA *       CLOUDY    66  66 100 SE7       29.90S FOG
CLARION *      MOCLDY    64  64 100 E7        29.90F FOG
ESTHERVILLE    LGT RAIN  66  66 100 CALM      29.89F FOG
FORT DODGE *   CLOUDY    66  63  88 SE7       29.89F
MASON CITY     PTCLDY    64  62  93 SE6       29.94F
FOREST CITY *  CLOUDY    64  64 100 SE9       29.92F
WEBSTER CITY * PTCLDY    64  64 100 E6        29.88F FOG
IOWA FALLS *     N/A     65  64  95 E5        29.93S FOG
$$

IAZ007>011-017>019-026>030-037>042-050>054-066-161000-
   NORTHEAST IOWA

CITY           SKY/WX    TMP DP  RH WIND       PRES   REMARKS
CEDAR RAPIDS   CLEAR     65  65 100 E5        29.93R FOG
CHARLES CITY * CLOUDY    66  66 100 SE8       29.94F
CLINTON *      CLOUDY    66  63  90 E9        29.97S
DECORAH *      CLOUDY    64  63  94 E7G13     29.96S
DUBUQUE        PTCLDY    64  60  87 E8        29.98R
MONTICELLO *   CLOUDY    66  64  94 E7        29.95R
OELWEIN *      MOCLDY    66  66 100 SE10      29.95S
WATERLOO       MOCLDY    67  63  87 E6        29.92S
$$

IAZ064-065-067-068-078-161000-
   EAST CENTRAL IOWA

CITY           SKY/WX    TMP DP  RH WIND       PRES   REMARKS
DAVENPORT      MOCLDY    68  65  90 E7        29.96F
IOWA CITY      CLEAR     70  66  87 E5        29.94S
MUSCATINE *    CLEAR     68  66  94 CALM      29.93S
QUAD CITIES    PTCLDY    69  65  86 E8        29.94S FOG
$$

IAZ062-063-075>077-085>089-095>099-161000-
   SOUTHEAST IOWA

CITY           SKY/WX    TMP DP  RH WIND       PRES   REMARKS
BURLINGTON     CLEAR     71  70  96 E6        29.92R
FAIRFIELD *    CLEAR     68  66  94 E5        29.91R
FORT MADISON * CLEAR     72  70  94 E5        29.93R
KEOKUK *       CLEAR     70  68  94 E6        29.91R
OSKALOOSA *      N/A     68  66  95 SE5       29.91R
OTTUMWA        CLEAR     69  68  96 E6        29.90S
WASHINGTON *   CLEAR     68  68 100 E6        29.93S
$$

ABBREVIATIONS USED IN REMARKS
   TC - TEMPERATURES IN CELSIUS
  WCI - WIND CHILL INDEX
   HX - HEAT INDEX
  VSB - VISIBILITY
$$





USA.gov is the U.S. government's official web portal to all federal, state and local government web resources and services.